CZ-6A DEB, 60657

Orbit data source: Space-Track

CZ-6A DEB, 60657 is space debris in LEO originally from a launch on Tue, 06 Aug 2024 UTC launched from the Taiyaun Space Center, China (TSC). Debris objects in space refer to the collection of defunct objects orbiting the Earth. Examples of debris include non-operational satellites, rocket bodies, and fragments generated from explosions, collisions, or faulty payload assembly.

Loading next visibility...
Identifier
60657, 2024-140BJ
Orbit
LEO
Country
Flag of CNCN / PRC
Related business
Manufacturer
SAST
Mission
Spacecraft
Bus & Motor
Unknown
Mass
Unknown
Launch date (UTC)
2024-08-06 (2 years ago)
Launch vehicle
Unknown
Launch site
Taiyaun Space Center, China (TSC)
Object type
Payload
Rocket body
Debris
Shape & HBR
Unknown shape, 0.5 m
Radar Cross Section
Medium (>0.1 m² and <1 m²)

Expand to show TLE details & history
Last TLE update: 14 hours ago

TLE from 14 hours ago
0 CZ-6A DEB
1 60657U 24140BJ  26171.26224524  .00000470  00000-0  11142-3 0  9992
2 60657  88.9213 263.7187 0088595 258.5083 100.6165 14.50001249 98560
Epoch: 2026-06-20T06:17Z
TLE epoch observation values (Epoch: 2026-06-20T06:17:37.988Z)
Latitude
-0.00006°
Longitude
-99.16898°
Altitude
740.875 km
Speed
7.478 km/s
True Right ascension
17h 34m 52s
True Declination
0° 00' 00"
Sunlit
Object was in full shadow at epoch
Visualization orbit readout
Latitude
Unknown
Longitude
Unknown
Altitude
Unknown
Speed
Unknown
Apparent Right ascension
Unknown
Apparent Declination
Unknown
Sunlit
N/A
Visualization observer readout
Local Sidereal Time
07:19:52
Azimuth
Unknown
Elevation
Unknown
Doppler factor
Unknown
Orbital elements
Apogee altitude
785.461 km
Perigee altitude
659.644 km
Semi-major axis
7,100.69 km
Eccentricity
0.00886
Inclination
88.9213°
RAAN
263.7187°
Arg. of periapsis
258.5083°
True anomaly
101.61226°
Mean anomaly
100.6165°
Eccentric anomaly
101.11459°
Mean motion
3.62737 °/min
Orbital period
99.25 mins
BSTAR
0.00011142
Loading maneuver chart data...
Computing Atmospheric mass density...
Loading historical data...
Loading historical data...
Loading historical data...
Loading historical data...
Loading historical data...
Loading historical data...
Loading historical data...

Documentation

Showing up to 5 results
|